[[{"header":{"parameterUnit":"m.s-1","parameterCategory":1,"la1":30.2991,"la2":30.254,"lo1":-89.0895,"lo2":-89.0444,"dy":0.0017,"dx":0.0017,"nx":28,"ny":28,"refTime":"2023-08-31T09:00:00:Z","depth":0,"parameterNumber":2,"parameterNumberName":"U-component_of_WINDS"},"data":[0,0,0,0,0,0,0,0,0,0,0,0,0,0,0,0,0,0,0,0,0,0,0,0,0,0,0,0,0,0,0,0,0,0,0,0,0,0,0,0,0,0,0,0,0,0,0,0,0,0,0,0,0,0,0,0,0,0,-1.5241,-1.5241,0,-1.53,-1.53,-1.5301,-1.5216,-1.5213,-1.521,-1.5207,-1.527,-1.5275,-1.5279,0,0,0,0,0,0,0,0,0,0,0,0,0,-1.5056,-1.506,-1.5241,-1.5241,-1.5242,-1.53,-1.53,-1.5301,-1.5217,-1.5213,-1.5209,-1.5206,-1.5269,-1.5274,-1.528,0,0,0,0,0,0,0,0,0,0,0,0,0,-1.5128,-1.5061,-1.5241,-1.5207,-1.5204,-1.5299,-1.53,-1.5301,-1.5217,-1.5213,-1.5208,-1.5204,-1.5267,-1.5274,-1.528,-1.5412,0,0,-1.5301,-1.5304,0,0,0,0,0,0,0,0,-1.5124,-1.5135,-1.5211,-1.5209,-1.5207,-1.5246,-1.5258,-1.5339,-1.5218,-1.5213,-1.5207,-1.5202,-1.5266,-1.5273,-1.5294,-1.5415,-1.5418,-1.5302,-1.5306,-1.5309,-1.5311,0,0,0,0,0,0,0,-1.5119,-1.5132,-1.5264,-1.5212,-1.521,-1.5189,-1.5194,-1.5273,-1.5264,-1.5213,-1.5207,-1.5215,-1.5264,-1.5287,-1.5295,-1.5419,-1.5301,-1.5307,-1.5312,-1.5314,-1.565,-1.5655,0,0,0,0,0,0,-1.5118,-1.5128,-1.5262,-1.5266,-1.5153,-1.5196,-1.5202,-1.5238,-1.5263,-1.5262,-1.5218,-1.521,-1.5278,-1.5287,-1.5297,-1.5452,-1.5309,-1.5315,-1.5319,-1.5646,-1.5652,-1.5657,0,0,0,0,0,0,-1.5114,-1.513,-1.526,-1.5195,-1.521,-1.5204,-1.5245,-1.5241,-1.5265,-1.5267,-1.5265,-1.5244,-1.5275,-1.5287,-1.5384,-1.5453,-1.5318,-1.5324,-1.564,-1.5647,-1.5654,-1.5765,0,0,0,0,0,0,-1.5109,-1.513,-1.518,-1.5197,-1.5214,-1.5346,-1.5249,-1.5246,-1.5276,-1.5266,-1.5291,-1.529,-1.5272,-1.5374,-1.539,-1.546,-1.5329,-1.5634,-1.5643,-1.5652,-1.5755,-1.5775,-1.5793,0,0,0,0,0,-1.5103,-1.521,-1.5183,-1.5199,-1.5276,-1.535,-1.536,-1.5336,-1.5282,-1.5332,-1.5334,-1.529,-1.5443,-1.5385,-1.5402,-1.5475,-1.5629,-1.564,-1.5651,-1.5747,-1.5771,-1.5792,0,0,0,0,0,0,-1.5202,-1.5211,-1.5182,-1.5297,-1.5323,-1.5336,-1.5399,-1.5363,-1.5406,-1.5396,-1.5365,-1.5371,-1.5475,-1.5484,-1.542,-1.5603,-1.5527,-1.5542,-1.5594,-1.5617,-1.5635,-1.5631,-1.5335,0,0,0,0,0,-1.5237,-1.5296,-1.5301,-1.5402,-1.5417,-1.5406,-1.5437,-1.5416,-1.5443,-1.5454,-1.5462,-1.549,-1.5544,-1.5581,-1.5631,-1.5755,-1.5759,-1.5814,-1.5833,-1.5848,-1.5862,-1.5928,-1.5952,-1.5693,-1.5693,-1.5693,0,0,-1.5311,-1.5323,-1.5362,-1.5422,-1.544,-1.5502,-1.5416,-1.5485,-1.5531,-1.5465,-1.5556,-1.5563,-1.5592,-1.5703,-1.5753,-1.5715,-1.5934,-1.5862,-1.5874,-1.588,-1.5941,-1.5966,-1.5988,-1.57,-1.5699,-1.5698,0,0,-1.5477,-1.5492,-1.5577,-1.5597,-1.5624,-1.5616,-1.5636,-1.5654,-1.5656,-1.5747,-1.5698,-1.5751,-1.5846,-1.5868,-1.5892,-1.6064,-1.6025,-1.6081,-1.6179,-1.6244,-1.6264,-1.6282,-1.6343,-1.6366,-1.6094,-1.6095,-1.6095,0,-1.5565,-1.5656,-1.5626,-1.5699,-1.5727,-1.5667,-1.5754,-1.5774,-1.5818,-1.5838,-1.5794,-1.591,-1.5926,-1.6041,-1.6082,-1.6104,-1.6126,-1.6079,-1.6263,-1.6281,-1.6297,-1.6355,-1.6379,-1.6101,-1.6101,-1.61,-1.6099,0,-1.5763,-1.5827,-1.5893,-1.5935,-1.5969,-1.6049,-1.6031,-1.607,-1.6046,-1.6042,-1.6135,-1.6151,-1.6202,-1.6228,-1.6205,-1.634,-1.6315,-1.6268,-1.6191,-1.6329,-1.6383,-1.6405,-1.6111,-1.6109,-1.6107,-1.6105,0,0,-1.5996,-1.6018,-1.6043,-1.6061,-1.6086,-1.6135,-1.6211,-1.626,-1.6294,-1.6325,-1.6388,-1.6468,-1.6424,-1.6451,-1.643,-1.6487,-1.6621,-1.6432,-1.6432,-1.6467,-1.677,-1.6806,-1.6832,-1.6595,-1.6599,-1.6602,-1.6768,0,-1.6162,-1.6293,-1.6267,-1.6395,-1.6453,-1.6397,-1.6463,-1.6486,-1.6483,-1.6533,-1.653,-1.6587,-1.6524,-1.654,-1.6593,-1.6594,-1.6682,-1.6581,-1.6654,-1.6657,-1.665,-1.6861,-1.6899,-1.7055,-1.6789,-1.6792,-1.6795,0,-1.6373,-1.6411,-1.6544,-1.6559,-1.6582,-1.6642,-1.6684,-1.6732,-1.6756,-1.675,-1.678,-1.6747,-1.6823,-1.6743,-1.6847,-1.6779,-1.6807,-1.6811,-1.6816,-1.6823,-1.6735,-1.6874,-1.7104,-1.7128,-1.6828,-1.6825,-1.6823,0,-1.653,-1.6614,-1.6704,-1.6721,-1.674,-1.6783,-1.6793,-1.6813,-1.6843,-1.688,-1.69,-1.6946,-1.6971,-1.7007,-1.6988,-1.6932,-1.7095,-1.7014,-1.7093,-1.7094,-1.7131,-1.713,-1.737,-1.7148,-1.7148,-1.7147,-1.7147,0,-1.6718,-1.6803,-1.6774,-1.6831,-1.6923,-1.6892,-1.6984,-1.6987,-1.7005,-1.706,-1.7014,-1.7067,-1.7038,-1.7089,-1.7074,-1.7162,-1.7174,-1.7172,-1.7167,-1.7176,-1.7177,-1.7195,-1.7184,-1.7153,-1.7152,-1.7151,-1.715,0,-1.691,-1.6894,-1.6989,-1.6999,-1.7003,-1.707,-1.7078,-1.713,-1.7123,-1.7194,-1.7209,-1.7199,-1.7256,-1.724,-1.7303,-1.7292,-1.7404,-1.7385,-1.7396,-1.7391,-1.7471,-1.7464,-1.7733,-1.7766,-1.7522,-1.7525,-1.7526,0,-1.7032,-1.7095,-1.711,-1.7143,-1.7156,-1.7211,-1.7241,-1.7213,-1.7247,-1.7278,-1.7326,-1.7379,-1.742,-1.7514,-1.7512,-1.7559,-1.7542,-1.7632,-1.7549,-1.7556,-1.7544,-1.754,-1.7546,-1.765,-1.7653,-1.7655,-1.7657,0,-1.725,-1.7238,-1.7284,-1.7327,-1.7364,-1.7397,-1.7425,-1.7455,-1.7428,-1.7468,-1.7526,-1.7557,-1.762,-1.7673,-1.7715,-1.7725,-1.7688,-1.7683,-1.7704,-1.7715,-1.7718,-1.7717,-1.7442,-1.7677,-1.7675,-1.7674,-1.7673,-1.7672,-1.7411,-1.7464,-1.7482,-1.7534,-1.7552,-1.7579,-1.7628,-1.7626,-1.7673,-1.7721,-1.7701,-1.7767,-1.7788,-1.7841,-1.7856,-1.7907,-1.7873,-1.7903,-1.7911,-1.7919,-1.7929,-1.7709,-1.7915,-1.7914,-1.7914,-1.7913,-1.7913,0,-1.7626,-1.7635,-1.7683,-1.7723,-1.7764,-1.7722,-1.775,-1.7787,-1.7846,-1.7868,-1.7908,-1.7973,-1.8024,-1.8025,-1.8072,-1.8113,-1.8097,-1.8126,-1.8124,-1.8127,-1.7957,-1.7935,-1.8139,-1.8139,-1.8139,-1.8139,-1.8139,-1.8139,-1.7744,-1.7831,-1.7822,-1.7917,-1.7924,-1.7988,-1.8008,-1.8032,-1.8049,-1.8124,-1.8165,-1.8165,-1.8179,-1.8226,-1.8271,-1.827,-1.8289,-1.8326,-1.8319,-1.8161,-1.8139,-1.8117,-1.8096,-1.8331,-1.8331,-1.8484,-1.8485,-1.8486]},{"header":{"parameterUnit":"m.s-1","parameterCategory":1,"la1":30.2991,"la2":30.254,"lo1":-89.0895,"lo2":-89.0444,"dy":0.0017,"dx":0.0017,"nx":28,"ny":28,"refTime":"2023-08-31T09:00:00:Z","depth":0,"parameterNumber":3,"parameterNumberName":"V-component_of_WINDS"},"data":[0,0,0,0,0,0,0,0,0,0,0,0,0,0,0,0,0,0,0,0,0,0,0,0,0,0,0,0,0,0,0,0,0,0,0,0,0,0,0,0,0,0,0,0,0,0,0,0,0,0,0,0,0,0,0,0,0,0,-2.0484,-2.0483,0,-2.0449,-2.0448,-2.0448,-2.0427,-2.0427,-2.0427,-2.0427,-2.039,-2.0389,-2.0388,0,0,0,0,0,0,0,0,0,0,0,0,0,-2.0529,-2.0528,-2.0484,-2.0483,-2.0483,-2.0449,-2.0448,-2.0448,-2.0427,-2.0427,-2.0427,-2.0427,-2.039,-2.0389,-2.0388,0,0,0,0,0,0,0,0,0,0,0,0,0,-2.0503,-2.0528,-2.0484,-2.0468,-2.0467,-2.0449,-2.0448,-2.0448,-2.0427,-2.0427,-2.0427,-2.0427,-2.0391,-2.0389,-2.0388,-2.0382,0,0,-2.0384,-2.0383,0,0,0,0,0,0,0,0,-2.0505,-2.0502,-2.0471,-2.0469,-2.0468,-2.0442,-2.0451,-2.0426,-2.0427,-2.0442,-2.0427,-2.0427,-2.0407,-2.0405,-2.0398,-2.038,-2.0379,-2.0384,-2.0383,-2.0382,-2.0382,0,0,0,0,0,0,0,-2.0507,-2.0503,-2.047,-2.0471,-2.0468,-2.0462,-2.0458,-2.0446,-2.0426,-2.0441,-2.0439,-2.0436,-2.0406,-2.04,-2.0397,-2.0378,-2.0384,-2.0382,-2.0382,-2.0381,-2.035,-2.035,0,0,0,0,0,0,-2.0511,-2.0505,-2.0471,-2.0469,-2.0486,-2.0462,-2.0457,-2.045,-2.0426,-2.0422,-2.0436,-2.0435,-2.0402,-2.0399,-2.0396,-2.0385,-2.0382,-2.0381,-2.038,-2.035,-2.035,-2.035,0,0,0,0,0,0,-2.0512,-2.0508,-2.0472,-2.0486,-2.0481,-2.0461,-2.0453,-2.045,-2.0443,-2.0422,-2.0418,-2.0433,-2.0402,-2.0398,-2.0385,-2.0384,-2.038,-2.0379,-2.035,-2.035,-2.035,-2.0365,0,0,0,0,0,0,-2.0514,-2.0509,-2.0507,-2.0486,-2.048,-2.0463,-2.0453,-2.0449,-2.0441,-2.0439,-2.0418,-2.0415,-2.0401,-2.0387,-2.0384,-2.0382,-2.0378,-2.035,-2.035,-2.035,-2.0365,-2.0366,-2.0366,0,0,0,0,0,-2.0515,-2.0513,-2.0507,-2.0503,-2.0478,-2.0463,-2.046,-2.0445,-2.0441,-2.0439,-2.0424,-2.0415,-2.0384,-2.0386,-2.0382,-2.0379,-2.035,-2.035,-2.035,-2.0364,-2.0365,-2.0366,0,0,0,0,0,0,-2.0535,-2.051,-2.0504,-2.0495,-2.0481,-2.046,-2.0456,-2.0447,-2.0434,-2.0433,-2.0415,-2.041,-2.0398,-2.0388,-2.039,-2.0371,-2.0366,-2.0365,-2.0378,-2.0379,-2.038,-2.0383,-2.0377,0,0,0,0,0,-2.0538,-2.0529,-2.0508,-2.0502,-2.0495,-2.0477,-2.047,-2.0459,-2.0444,-2.0438,-2.0423,-2.0408,-2.0395,-2.0386,-2.0373,-2.0363,-2.0356,-2.0359,-2.036,-2.0361,-2.036,-2.0351,-2.0351,-2.035,-2.035,-2.035,0,0,-2.0545,-2.053,-2.0526,-2.0505,-2.0494,-2.0483,-2.0472,-2.0462,-2.0453,-2.0437,-2.0423,-2.0411,-2.0393,-2.0381,-2.0375,-2.0371,-2.0359,-2.0361,-2.0362,-2.036,-2.0351,-2.0351,-2.0351,-2.035,-2.035,-2.035,0,0,-2.0552,-2.0541,-2.0534,-2.0521,-2.0503,-2.0491,-2.0489,-2.0468,-2.046,-2.0446,-2.0432,-2.0421,-2.0399,-2.0386,-2.0376,-2.0375,-2.0365,-2.0371,-2.0376,-2.0367,-2.0367,-2.0367,-2.0364,-2.0364,-2.037,-2.037,-2.037,0,-2.0562,-2.0546,-2.0531,-2.0521,-2.0511,-2.0495,-2.0487,-2.0476,-2.0454,-2.0447,-2.0444,-2.0414,-2.0401,-2.0384,-2.0383,-2.0377,-2.0372,-2.0373,-2.0368,-2.0368,-2.0368,-2.0365,-2.0365,-2.0371,-2.0371,-2.0371,-2.0371,0,-2.0559,-2.0548,-2.0544,-2.0524,-2.0514,-2.0505,-2.0486,-2.0478,-2.0467,-2.0455,-2.0439,-2.0422,-2.0404,-2.0399,-2.039,-2.038,-2.0378,-2.0372,-2.0367,-2.0369,-2.0366,-2.0365,-2.0372,-2.0372,-2.0372,-2.0372,0,0,-2.0578,-2.0548,-2.0546,-2.0536,-2.0514,-2.0504,-2.0493,-2.0475,-2.0467,-2.0452,-2.0441,-2.0421,-2.0415,-2.0404,-2.0392,-2.0385,-2.0381,-2.0379,-2.0378,-2.0378,-2.0367,-2.0371,-2.037,-2.0375,-2.0375,-2.0374,-2.0368,0,-2.058,-2.0561,-2.0546,-2.0531,-2.0519,-2.0503,-2.0493,-2.0477,-2.0464,-2.0451,-2.0436,-2.0422,-2.0415,-2.0408,-2.04,-2.0384,-2.0379,-2.0384,-2.0362,-2.0362,-2.0367,-2.0369,-2.0374,-2.0369,-2.0367,-2.0367,-2.0367,0,-2.0581,-2.0566,-2.0551,-2.0527,-2.0522,-2.0513,-2.0494,-2.0483,-2.0463,-2.0454,-2.0441,-2.0428,-2.0413,-2.0409,-2.0388,-2.0391,-2.0381,-2.0372,-2.0371,-2.0368,-2.0364,-2.0365,-2.0367,-2.0366,-2.0365,-2.0365,-2.0365,0,-2.0594,-2.057,-2.0557,-2.0549,-2.0522,-2.0516,-2.0504,-2.0485,-2.0474,-2.0457,-2.045,-2.0431,-2.0421,-2.0406,-2.0387,-2.0387,-2.0367,-2.0362,-2.0357,-2.0357,-2.0353,-2.0354,-2.0353,-2.0349,-2.0349,-2.0349,-2.0349,0,-2.0598,-2.0589,-2.0563,-2.0555,-2.0543,-2.0524,-2.0512,-2.0499,-2.0482,-2.0469,-2.0453,-2.0442,-2.0419,-2.0404,-2.0389,-2.0372,-2.0368,-2.0359,-2.0355,-2.036,-2.036,-2.0352,-2.0352,-2.0349,-2.0349,-2.0349,-2.0349,0,-2.0611,-2.0593,-2.0578,-2.0553,-2.0546,-2.0539,-2.0517,-2.0507,-2.0492,-2.0477,-2.0472,-2.0449,-2.043,-2.041,-2.0385,-2.0375,-2.0357,-2.0353,-2.0364,-2.0362,-2.0357,-2.0357,-2.035,-2.0348,-2.0347,-2.0347,-2.0347,0,-2.0614,-2.0606,-2.058,-2.0571,-2.056,-2.0545,-2.0534,-2.0515,-2.0503,-2.0479,-2.0472,-2.0452,-2.0435,-2.0405,-2.0385,-2.0365,-2.0358,-2.0357,-2.0355,-2.0359,-2.0356,-2.0357,-2.0355,-2.0358,-2.0358,-2.0358,-2.0358,0,-2.0621,-2.0612,-2.0597,-2.0578,-2.0565,-2.0549,-2.0533,-2.0526,-2.0503,-2.049,-2.0471,-2.0458,-2.0431,-2.041,-2.0387,-2.0373,-2.0361,-2.0359,-2.0356,-2.0361,-2.0367,-2.0362,-2.0365,-2.0359,-2.0359,-2.0359,-2.0359,-2.0359,-2.0627,-2.0619,-2.0599,-2.0582,-2.0567,-2.0552,-2.0541,-2.0524,-2.0508,-2.0485,-2.0474,-2.0454,-2.0432,-2.04,-2.0386,-2.0368,-2.0365,-2.0362,-2.0361,-2.036,-2.0361,-2.037,-2.0364,-2.0364,-2.0364,-2.0364,-2.0364,0,-2.0632,-2.0618,-2.0602,-2.058,-2.0566,-2.0556,-2.0536,-2.0525,-2.0508,-2.0489,-2.0472,-2.0448,-2.0427,-2.0405,-2.0382,-2.0372,-2.0366,-2.0367,-2.0367,-2.0363,-2.0366,-2.0369,-2.0372,-2.0372,-2.0372,-2.0372,-2.0372,-2.0372,-2.0633,-2.0617,-2.0605,-2.0581,-2.0567,-2.0548,-2.0537,-2.0521,-2.0506,-2.048,-2.0463,-2.0449,-2.0427,-2.0403,-2.0382,-2.0376,-2.0368,-2.037,-2.0362,-2.0364,-2.0364,-2.0363,-2.0366,-2.0369,-2.0369,-2.0361,-2.0361,-2.0361]}]]